Starlink 5503

operational
NORAD ID: 57257 Int'l Des: 2023-094 Owner: SPXS Country: US Constellation: starlink
LEOCIRCULAR

Über Starlink 5503

Beschreibung wird geladen...

Live-Position

3D-Globus wird geladen...

Nächste Überflüge

Höhenverlauf

Altitude vs Time

uPlot chart will show altitude changes over time

Zweizeiliger Elementsatz

1 57257U 23094AR 26037.47407492 .00001192 00000-0 10329-3 0 9990
2 57257 43.0014 186.9943 0001451 273.4839 86.5837 15.02535111143231
Epoch: 6. Feb. 2026 • Age: 13 hours

Aktueller Status

Höhe 558.9 km
Geschwindigkeit 7.58 km/s
Subsatellitenpunkt -1.08°S, 43.8°E
Startdatum 7. Juli 2023
Alter 2.5 years
Typ internet

Technische Details

Klassifizierung Payload
Masse 305.00 kg
Trockenmasse 290.00 kg
Gesamtmasse 305.00 kg
Länge 0.20 m
Durchmesser 2.80 m
Spannweite 9.00 m
Form Box + pan
Hersteller SPXS
Bus-Typ Starlink
Phasenstatus In Orbit
Besitzer/Staat SPXS/US

Große Konstellationen

Loading constellations...